Location: Borojevi?i
(45.0486°N, 16.2297°E)
Time: 04:20:32
(UTC+00:00)

Cosmos 1633 Rocket - Pass Details

Date: 08 August 2020
Orbit: 606 x 624 km, 82.5° (Epoch: 23 September)

Event Time Altitude Azimuth Distance (km) Brightness Sun altitude
Exits shadow 19:18:00 13° 148° (SSE) 1,789 4.8 -11.0°
Maximum altitude 19:21:18 31° 90° (E) 1,093 3.9 -11.4°
Drops below altitude 10° 19:25:14 10° 28° (NNE) 2,004 5.8 -12.0°
Sets 19:27:38 0° 19° (NNE) 2,914 6.8 -12.3°
